カタログに戻る

STARLINK-11600

運用中通信VLEO
NORAD 63114·PAYLOAD·🇺🇸 United States

打ち上げ Feb 27, 2025 から Cape Canaveral Space Force Station

Loading…

次のパス (今後24時間)

TLE

最新Source: CelesTrak SupGP

元期: Sep 15, 2026, 03:36 UTC

1 63114C 25039L   26258.15048611  .00041918  00000+0  32555-3 0  2586
2 63114  43.0005 174.6747 0001461 271.4126 121.3490 15.70819701    10

AllMySatでSTARLINK-11600をリアルタイム追跡

Download on the App Store